CAPE
0 0 0 0 0 0 0 0 0 14 340 593 761 849 567 369 679 494 823 737 261 56 52 594 742 1222 1266 1128 1077 1030 1042 992 930 1019 927 875 1072 1068 1107 1148 1304 1378 1433 1458 1327 1048 881 543 188
0 0 0 0 0 0 0 0 20 285 593 611 707 791 885 930 819 942 599 567 322 4 0 248 543 1064 1285 1197 1156 1108 1091 974 860 934 777 970 1074 1054 1112 1201 1251 1321 1343 1196 1088 1027 773 395 350
0 0 0 0 0 0 4 0 16 449 599 1101 1260 978 446 117 264 1052 1032 609 286 26 18 365 510 984 1326 1357 1260 1136 938 830 780 792 869 1022 1060 1031 995 995 1074 1127 1194 1156 975 896 693 476 485
0 0 0 0 0 0 0 1 5 587 546 1166 1066 555 0 0 0 459 1076 526 302 67 112 147 323 694 1118 1348 1355 1106 813 790 856 910 859 931 1012 925 854 853 886 1115 968 993 872 573 408 397 410
0 0 0 0 0 0 0 218 299 744 945 1083 919 221 1 0 0 505 936 528 483 161 13 106 232 400 693 944 1081 1017 897 879 902 847 890 961 935 727 415 490 678 741 1036 889 630 177 162 165 168
0 0 0 0 0 0 75 471 832 540 700 498 412 170 0 0 5 130 766 769 512 540 184 75 0 23 167 302 433 603 717 751 751 756 796 811 768 597 353 227 311 450 535 619 373 103 76 67 66
0 0 0 0 0 0 0 149 268 51 0 11 520 51 0 0 0 130 391 414 492 519 602 759 520 184 0 16 153 266 443 594 666 708 751 739 643 569 459 315 227 254 186 99 85 23 29 40 19
0 0 0 0 0 0 0 0 11 0 0 0 8 232 0 0 1 114 234 185 105 87 129 201 525 715 672 621 22 163 289 422 493 560 639 663 595 459 335 228 148 96 73 8 0 0 0 0 8
0 0 0 0 0 0 0 0 0 0 0 0 0 0 0 0 21 107 102 40 0 0 0 18 182 405 929 508 610 14 29 189 311 283 223 304 430 944 903 627 404 216 34 0 0 0 0 0 0
0 0 0 0 26 4 0 0 0 0 0 0 0 0 0 0 0 0 0 0 0 0 0 0 1 150 296 1038 596 574 659 409 318 298 512 657 206 238 359 480 366 164 103 22 0 0 0 0 0
0 0 0 0 0 4 0 0 0 0 0 0 0 0 0 0 0 0 0 0 0 0 0 0 0 1 77 138 599 1120 587 516 579 597 674 648 462 417 258 95 458 544 203 173 31 8 0 0 0
0 0 0 0 0 0 0 0 0 0 0 0 0 0 0 0 0 0 0 0 0 0 0 0 0 0 0 203 221 802 1408 1004 738 662 772 666 653 623 505 292 126 86 35 74 11 8 21 3 1
0 0 0 0 0 0 0 0 0 0 0 0 0 0 0 0 0 0 0 0 0 0 0 0 0 0 0 1 202 331 892 1317 1223 837 848 791 672 592 551 551 542 365 162 72 60 8 0 1 4
0 0 0 0 0 0 0 0 0 0 0 0 0 0 0 0 0 0 0 0 0 0 0 0 0 0 0 0 1 147 470 694 820 1172 907 804 778 868 842 605 494 544 514 341 168 63 52 9 0
0 0 0 0 0 0 0 0 0 0 0 0 0 0 0 0 0 0 0 0 0 0 0 0 0 0 0 0 0 11 1 0 1 2 3 0 14 232 695 980 940 932 645 629 430 406 258 163 37
0 0 0 0 0 0 0 0 0 0 0 0 0 0 0 0 0 0 0 0 0 0 0 0 0 0 0 0 2 0 0 0 1 2 0 0 1 1 0 423 881 926 931 779 647 612 481 293 101
0 0 0 0 0 0 0 0 0 0 0 0 0 0 0 0 0 0 0 0 0 0 0 0 0 0 0 0 1 4 1 0 0 0 0 0 1 2 3 5 3 180 718 777 756 658 718 528 462
0 0 0 0 0 0 0 0 0 0 0 0 0 0 0 0 0 0 0 0 0 0 0 0 0 0 0 0 0 0 5 3 0 0 0 0 1 1 2 5 4 2 4 78 577 716 682 709 501
0 0 0 0 0 0 0 0 0 0 0 0 0 0 0 0 0 0 0 0 0 0 0 0 0 0 0 0 0 0 0 0 0 1 1 2 3 3 3 3 3 1 5 6 5 3 353 624 655
8 8 10 0 0 0 0 0 0 0 0 0 0 0 0 0 0 0 0 0 0 0 0 0 0 0 0 0 0 0 0 0 0 0 1 1 1 1 2 2 2 2 3 3 3 4 4 4 344
15 18 0 0 0 0 0 0 0 0 0 0 0 0 0 0 0 0 0 0 0 0 0 0 0 0 0 0 0 0 0 0 0 0 0 0 0 0 0 0 1 1 0 2 3 3 4 4 3
0 1 0 0 0 0 0 7 0 0 0 0 0 0 0 0 0 0 0 0 0 0 0 0 0 0 0 0 0 0 0 0 0 0 0 0 0 0 0 0 1 0 0 0 0 1 0 1 3
19 0 0 0 0 0 0 0 0 0 0 0 0 0 0 0 0 0 0 0 0 0 0 0 0 0 0 0 0 0 0 0 0 0 0 0 0 0 0 0 0 0 0 0 0 0 0 0 1
0 0 0 0 0 0 0 0 0 0 0 0 0 0 0 0 0 0 0 0 0 0 0 0 0 0 0 0 0 0 0 0 0 0 0 0 0 0 0 0 0 0 0 0 0 0 0 0 0
0 0 0 0 0 0 0 0 0 0 0 0 0 0 0 0 0 0 0 0 0 0 0 0 0 0 0 0 0 0 0 0 0 0 0 0 0 0 0 0 0 0 0 0 0 0 0 0 0
0 0 0 0 0 0 0 0 0 0 0 0 0 0 0 0 0 0 0 0 0 0 0 0 0 0 0 0 0 0 0 0 0 0 0 0 0 0 0 0 0 0 0 0 0 0 0 0 0
0 0 0 0 0 0 0 0 0 0 0 0 0 0 0 0 0 0 0 0 0 0 0 0 0 0 0 0 0 0 0 0 0 0 0 0 0 0 0 0 0 0 0 0 0 0 0 0 0
0 0 0 0 0 0 0 0 0 0 0 0 0 0 0 0 0 0 0 0 0 0 0 0 0 0 0 0 0 0 0 0 0 0 0 0 0 0 0 0 0 0 0 0 0 0 0 0 0
0 0 0 0 0 0 0 0 0 0 0 0 0 0 0 0 0 0 0 0 0 0 0 0 0 0 0 0 0 0 0 0 0 0 0 0 0 0 0 0 0 0 0 0 0 0 0 0 0
0 0 0 0 0 0 14 13 0 0 0 0 0 0 0 0 0 0 0 0 0 0 0 0 0 0 0 0 0 0 0 0 0 0 0 0 0 0 0 0 0 0 0 0 0 0 0 0 0
CIN
0 0 0 0 0 0 0 0 0 -6 -5 -26 -34 -52 -114 -158 -91 -80 -19 -21 -68 -142 -194 -92 -118 -75 -82 -90 -83 -86 -84 -82 -68 -43 -38 -38 -24 -18 -11 -9 -5 -1 -2 -1 -2 -23 -59 -120 -184
0 0 0 0 0 0 0 0 -1 -3 -9 -36 -67 -78 -111 -140 -78 -31 -53 -37 -68 -114 0 -112 -128 -73 -66 -73 -67 -68 -74 -71 -71 -51 -43 -27 -21 -18 -9 -6 -7 -5 -2 -9 -9 -14 -59 -136 -141
0 0 0 0 0 0 -12 0 -2 -15 -22 -1 -65 -174 -294 -413 -304 -33 -18 -41 -106 -210 -236 -160 -104 -33 -18 -34 -48 -58 -66 -65 -68 -58 -44 -27 -21 -21 -17 -15 -11 -11 -8 -8 -14 -16 -46 -92 -96
0 0 0 0 0 0 0 -10 -61 -2 -9 -20 -105 -220 0 0 0 -224 -9 -78 -120 -191 -226 -281 -159 -50 -4 -4 -9 -31 -56 -59 -55 -45 -41 -37 -27 -29 -29 -27 -21 -7 -20 -15 -23 -55 -78 -83 -85
0 0 0 0 0 0 0 -37 -30 -7 -4 -1 -98 -294 -187 0 0 -211 -83 -96 -110 -202 -327 -272 -214 -101 -26 -8 -5 -14 -32 -41 -42 -46 -34 -25 -27 -43 -71 -62 -48 -40 -13 -22 -48 -135 -152 -157 -161
0 0 0 0 0 0 -58 -13 -5 -16 -21 -97 -186 -337 0 0 -66 -376 -80 -111 -183 -142 -208 -253 0 -242 -180 -93 -57 -39 -26 -30 -36 -42 -39 -38 -38 -45 -68 -95 -89 -75 -69 -58 -83 -162 -192 -220 -236
0 0 0 0 0 0 0 -80 -25 -146 0 -48 -78 -339 0 0 0 -353 -173 -155 -127 -109 -80 -34 -53 -205 0 -292 -172 -100 -57 -33 -28 -30 -32 -39 -52 -55 -63 -77 -99 -95 -116 -151 -167 -245 -254 -242 -317
0 0 0 -4 0 0 0 0 -200 0 0 0 -12 -132 0 0 -22 -320 -207 -226 -289 -308 -257 -203 -72 -10 -11 -25 -292 -182 -101 -72 -51 -43 -36 -34 -44 -67 -80 -89 -105 -124 -147 -141 0 0 0 0 -307
0 0 0 0 0 0 0 0 0 0 0 0 0 0 0 0 -349 -243 -248 -324 0 0 0 -266 -218 -96 -4 -25 -37 -168 -189 -161 -95 -84 -100 -75 -11 -11 -13 -17 -57 -95 -184 0 0 0 0 0 0
0 0 0 0 -5 -55 0 0 0 0 0 0 0 0 0 0 0 0 0 0 0 0 0 0 -51 -253 -163 -1 -9 -14 -4 -29 -57 -50 -9 -11 -17 -5 -6 -20 -47 -106 -160 -196 0 0 0 0 0
0 -6 0 0 0 -27 0 0 0 0 0 0 0 0 0 0 0 0 0 0 0 0 0 0 0 -32 -316 -255 -79 -1 -2 -2 -2 -5 -3 0 -1 -1 -3 -59 -7 -24 -72 -47 -188 -188 0 0 0
0 0 0 0 0 0 0 0 0 0 0 0 0 0 0 0 0 0 0 0 0 0 0 0 0 0 0 -209 -195 -37 -4 -8 -1 -2 0 -6 -2 -1 0 -10 -48 -80 -121 -95 -62 -2 -146 -72 -23
0 0 0 0 0 0 0 0 0 0 0 0 0 0 0 0 0 0 0 0 0 0 0 0 0 0 0 -15 -209 -128 -16 -1 -13 -17 -1 -1 -2 -2 -2 -2 -2 -11 -39 -83 -108 -68 0 -2 -1
0 0 0 0 0 0 0 0 0 0 0 0 0 0 0 0 0 0 0 0 0 0 0 0 0 0 0 0 -137 -179 -49 -11 -6 -1 -11 -5 -8 -3 -1 -2 -3 -4 -4 -16 -50 -88 -106 -53 0
0 0 0 0 0 0 0 0 0 0 0 0 0 0 0 0 0 0 0 0 0 0 0 0 0 0 0 0 0 -307 0 0 0 0 -17 -5 -12 -122 -2 -2 -1 -2 0 -7 -6 -3 -25 -45 -106
0 0 0 0 0 0 0 0 0 0 0 0 0 0 0 0 0 0 0 0 0 0 0 0 0 0 0 0 -1 -2 0 0 0 0 0 0 0 0 0 -33 -2 -2 -1 -2 -1 -5 -6 -11 -76
0 0 0 0 0 0 0 0 0 0 0 0 0 0 0 0 0 0 0 0 0 0 0 0 0 0 0 0 0 -2 -1 0 0 0 0 0 0 0 0 0 0 -17 -1 -3 -3 -5 -1 -3 -4
0 0 0 0 0 0 0 0 0 0 0 0 0 0 0 0 0 0 0 0 0 0 0 0 0 0 0 0 0 0 -1 -1 0 0 0 0 0 0 0 0 0 0 0 -7 -2 -1 -8 -2 -2
0 -1 0 0 0 0 0 0 0 0 0 0 0 0 0 0 0 0 0 0 0 0 0 0 0 0 0 0 0 0 0 0 -1 0 0 0 0 0 0 0 0 0 0 0 0 0 -1 -3 -8
-7 -8 -13 0 0 0 0 0 0 0 0 0 0 0 0 0 0 0 0 0 0 0 0 0 0 0 0 0 0 0 0 0 0 0 -1 -1 -1 0 -1 0 0 0 0 0 0 0 0 -28 -16
-12 -10 -11 0 0 0 0 0 0 0 0 0 0 0 0 0 0 0 0 0 0 0 0 0 0 0 0 0 0 0 0 0 0 0 0 0 0 0 0 0 0 0 0 0 0 0 0 0 0
0 -25 -5 0 0 0 0 -5 0 0 0 0 0 0 0 0 0 0 0 0 0 0 0 0 0 0 0 0 0 0 0 0 0 0 0 0 0 0 0 0 0 0 0 0 0 0 0 0 0
-6 0 0 0 0 0 0 0 0 0 0 0 0 0 0 0 0 0 0 0 0 0 0 0 0 0 0 0 0 0 0 0 0 0 0 0 0 0 0 0 0 0 0 0 0 0 0 0 0
0 0 0 0 0 0 0 0 0 0 0 0 0 0 0 0 0 0 0 0 0 0 0 0 0 0 0 0 0 0 0 0 0 0 0 0 0 0 0 0 0 0 0 0 0 0 0 0 0
0 0 0 0 0 0 0 0 0 0 0 0 0 0 0 0 0 0 0 0 0 0 0 0 0 0 0 0 0 0 0 0 0 0 0 0 0 0 0 0 0 0 0 0 0 0 0 0 0
0 0 0 0 0 0 0 0 0 0 0 0 0 0 0 0 0 0 0 0 0 0 0 0 0 0 0 0 0 0 0 0 0 0 0 0 0 0 0 0 0 0 0 0 0 0 0 0 0
0 0 0 0 0 0 0 0 0 0 0 0 0 0 0 0 0 0 0 0 0 0 0 0 0 0 0 0 0 0 0 0 0 0 0 0 0 0 0 0 0 0 0 0 0 0 0 0 0
0 0 0 0 0 0 0 0 0 0 0 0 0 0 0 0 0 0 0 0 0 0 0 0 0 0 0 0 0 0 0 0 0 0 0 0 0 0 0 0 0 0 0 0 0 0 0 0 0
0 0 0 0 0 0 0 0 0 0 0 0 0 0 0 0 0 0 0 0 0 0 0 0 0 0 0 0 0 0 0 0 0 0 0 0 0 0 0 0 0 0 0 0 0 0 0 0 0
0 0 0 0 0 0 -31 -23 0 0 0 0 0 0 0 0 0 0 0 0 0 0 0 0 0 0 0 0 0 0 0 0 0 0 0 0 0 0 0 0 0 0 0 0 0 0 0 0 0
Wind_Speed
26 24 23 22 18 19 21 15 11 6 9 11 11 11 15 16 13 11 10 14 20 21 21 16 12 12 14 15 15 16 19 22 23 23 23 23 20 20 18 14 9 9 10 11 12 13 13 14 14
24 23 21 22 23 17 17 7 10 6 7 10 13 12 12 13 15 16 14 16 19 23 22 18 13 12 13 14 14 16 18 20 21 22 22 21 18 17 15 10 9 10 11 11 12 13 13 13 12
25 23 24 20 22 25 20 10 8 9 4 5 8 10 10 11 12 11 10 13 20 23 21 18 15 13 14 13 13 15 16 17 18 21 19 12 9 10 10 10 11 11 11 11 12 13 13 13 11
21 17 22 23 21 15 14 10 6 6 5 5 6 9 9 11 13 14 14 12 15 20 21 19 18 17 16 16 14 12 13 14 14 13 12 10 11 12 13 13 13 12 12 12 11 12 13 13 13
23 22 28 23 15 15 14 11 6 3 4 6 5 5 7 12 12 8 9 11 12 13 19 18 20 19 19 18 17 15 13 11 11 11 11 11 12 13 14 14 14 14 13 12 12 12 11 13 13
18 20 28 24 16 14 11 10 1 3 5 5 3 3 10 12 9 9 7 10 12 11 15 17 18 20 20 19 18 16 16 14 12 11 11 12 13 14 15 15 15 15 15 14 15 14 12 11 13
24 23 29 23 11 11 11 8 6 5 5 11 1 5 7 10 9 9 8 9 11 11 12 12 13 16 19 18 18 17 16 15 14 13 12 13 14 14 15 16 17 17 17 17 17 15 15 16 15
29 23 31 20 16 15 11 9 10 8 8 8 13 8 8 9 6 7 8 9 11 12 12 13 14 14 14 16 15 15 15 14 13 12 12 13 13 15 17 17 16 18 19 20 19 19 19 19 20
16 22 31 24 14 9 8 6 6 4 1 4 4 4 5 7 5 6 8 10 12 12 13 15 16 16 17 14 14 12 12 11 11 10 10 9 9 9 10 12 14 17 19 21 22 22 22 23 25
18 31 24 22 9 5 8 4 2 2 1 3 3 4 5 6 6 7 9 10 13 14 15 17 18 18 19 19 13 12 11 9 9 8 8 8 8 6 21 15 12 16 20 21 22 23 24 25 27
16 25 15 14 14 3 4 5 1 2 5 5 3 3 5 5 6 8 10 12 13 15 17 19 20 20 20 20 21 16 11 11 11 10 10 12 14 12 6 7 6 10 7 17 14 19 23 25 27
17 18 13 13 8 12 9 5 7 3 5 5 5 5 5 6 8 10 11 12 14 16 18 19 21 21 21 20 20 22 21 22 15 15 12 12 18 15 17 25 14 12 11 15 20 21 20 23 26
21 12 3 5 8 16 12 13 10 7 7 6 5 6 6 8 9 11 12 14 15 17 19 21 22 23 23 22 22 20 20 22 26 26 21 18 20 22 24 25 28 26 26 19 14 17 22 25 21
11 7 6 4 5 7 9 14 17 12 10 8 7 7 8 10 12 13 14 16 17 19 21 22 23 25 24 23 23 22 21 24 24 26 25 25 27 27 25 25 21 23 29 24 22 20 22 23 23
6 7 5 5 5 10 5 13 16 14 11 10 10 9 10 11 13 14 15 17 19 20 22 24 25 25 25 25 23 23 25 24 25 25 25 26 26 29 28 29 29 28 23 26 27 29 25 24 22
11 10 16 12 9 12 21 19 15 13 12 11 11 11 11 13 14 16 18 19 20 22 24 25 26 26 26 26 23 23 24 24 24 25 25 27 28 29 30 31 31 33 33 30 28 27 31 31 30
14 16 16 15 13 13 17 18 13 14 13 13 13 12 12 13 15 17 18 19 20 21 23 25 26 27 27 26 24 23 24 25 25 26 27 28 28 30 30 31 32 34 35 34 33 34 32 33 36
17 16 13 16 15 15 15 13 14 12 12 13 14 13 13 14 14 15 17 19 21 22 24 25 27 28 27 26 25 25 24 24 25 26 28 29 29 30 31 31 33 33 33 34 37 36 36 36 35
13 19 13 10 11 12 14 12 12 13 13 13 13 13 14 14 15 15 17 18 19 21 23 25 26 27 27 26 26 26 26 26 26 27 28 30 30 31 31 31 32 33 34 35 36 35 39 38 38
10 15 11 12 15 19 14 15 14 14 16 14 14 14 13 13 14 15 16 18 20 21 22 23 25 26 27 26 26 24 25 25 25 26 27 29 30 31 31 33 33 33 34 34 36 37 38 37 37
11 11 12 15 11 14 13 18 15 14 14 15 15 13 12 12 12 13 15 17 19 21 22 23 24 25 26 26 25 24 24 24 26 27 28 28 29 31 31 32 32 33 34 35 35 37 37 39 38
13 5 5 7 9 18 16 28 19 15 16 15 14 12 12 11 12 13 15 17 19 20 21 22 23 24 25 26 25 25 25 26 27 27 27 28 29 31 32 32 32 32 32 34 35 35 35 37 42
6 7 6 10 12 13 15 26 23 12 18 16 14 11 10 10 11 12 15 16 18 19 20 21 21 23 24 24 25 24 25 25 26 27 28 28 29 31 33 33 33 34 33 34 35 36 36 36 38
4 2 7 9 15 22 19 18 21 18 16 12 10 7 7 8 10 11 13 13 15 17 18 19 20 21 23 23 24 24 24 25 26 27 28 28 29 31 33 33 33 34 35 36 36 35 35 37 36
4 5 9 16 18 23 10 13 13 12 12 13 10 6 5 6 8 9 9 10 13 15 17 18 20 21 22 23 24 25 25 25 26 27 28 29 30 31 33 34 34 34 35 36 35 34 35 37 38
11 8 13 17 16 19 10 20 11 8 10 4 5 4 2 3 5 6 7 9 11 13 16 17 18 20 21 22 23 24 26 26 26 27 28 29 29 31 32 33 34 35 35 35 35 34 35 37 37
8 9 23 21 21 19 13 15 18 7 2 4 6 5 3 1 2 4 5 7 9 12 14 16 17 19 20 21 22 24 25 26 26 27 28 29 30 31 32 33 33 34 34 35 34 31 33 36 36
19 10 19 19 18 21 21 13 15 4 6 7 8 7 4 1 0 2 4 6 8 11 13 14 16 18 19 20 21 22 24 25 26 26 28 29 29 30 31 32 33 33 33 34 33 33 33 34 33
13 12 16 19 22 24 21 22 19 8 12 13 11 8 6 5 4 3 4 5 7 10 11 13 15 16 18 19 21 22 23 24 25 26 27 28 29 30 31 31 32 32 33 33 33 34 34 34 34
15 17 10 16 18 20 21 21 15 2 12 13 11 9 7 7 5 3 3 5 7 8 10 12 14 15 17 19 20 21 22 23 24 26 27 28 29 30 31 32 32 33 34 34 34 35 36 35 35
Wind_Direction
271 265 269 268 271 270 261 278 308 342 348 353 353 25 34 13 341 7 344 26 62 67 71 38 10 12 36 50 57 62 77 96 109 121 125 101 63 68 61 38 345 244 227 221 212 205 205 200 200
273 272 267 267 261 262 265 284 272 332 26 50 55 50 19 23 12 41 29 45 59 78 83 51 19 9 27 47 52 59 71 87 98 116 132 105 55 56 42 354 316 265 250 237 226 217 217 216 221
250 263 264 268 259 262 273 263 273 294 315 3 348 352 322 306 319 359 258 33 64 78 63 50 26 13 21 30 45 58 65 74 83 102 100 239 277 348 319 318 293 284 274 267 247 236 231 232 244
268 281 271 263 258 284 288 286 282 278 270 344 40 349 5 337 288 252 218 37 38 61 56 50 45 39 31 37 39 37 49 59 51 41 22 313 278 259 241 268 280 287 294 287 279 259 251 250 256
258 273 262 261 271 278 279 291 251 278 288 314 316 345 344 305 298 298 282 29 22 17 55 40 49 49 54 50 51 52 45 26 13 16 359 315 282 283 278 265 276 282 292 296 288 287 290 276 276
282 278 260 257 266 278 277 278 236 269 337 354 31 313 312 307 333 308 335 351 8 5 29 40 48 60 70 64 66 62 64 54 30 343 327 333 321 302 288 279 280 284 285 289 285 286 302 309 301
268 271 259 269 254 259 273 274 266 263 280 294 289 302 326 325 331 354 13 355 10 354 354 345 356 44 71 72 70 69 76 71 58 43 11 321 308 309 305 292 282 281 282 282 283 290 291 292 297
259 265 258 272 257 258 271 266 270 273 272 294 294 284 296 326 350 2 16 11 7 350 343 340 330 333 325 52 55 67 76 77 78 61 33 15 349 321 300 302 306 292 282 281 282 282 283 285 285
276 254 253 261 272 252 252 266 286 330 332 348 331 5 346 334 343 2 6 1 357 338 327 327 333 333 324 1 20 47 71 77 87 93 83 78 102 49 12 334 327 310 297 288 283 283 283 281 276
256 249 247 257 293 220 248 235 222 265 354 11 19 354 358 356 349 358 355 345 349 343 337 334 327 325 321 312 4 9 18 44 62 84 72 80 117 311 313 340 348 321 303 297 293 288 285 285 283
255 260 261 259 257 241 221 244 200 288 278 294 310 344 350 357 347 349 356 353 346 342 342 340 334 327 322 317 313 336 358 355 358 356 360 352 333 355 47 25 20 359 351 316 313 302 293 287 285
256 282 258 248 226 240 253 266 273 287 279 294 312 320 338 342 341 338 331 340 338 338 336 333 339 334 333 333 325 314 318 315 331 331 338 336 322 330 325 297 333 344 343 328 314 305 306 297 292
260 268 264 219 244 235 241 254 259 268 273 284 307 328 329 335 339 337 331 332 333 330 333 332 332 331 332 333 329 327 325 323 307 305 312 318 314 310 306 304 296 304 306 320 325 318 309 303 304
247 242 253 254 237 215 228 247 258 263 261 270 289 311 325 325 326 331 328 323 322 327 329 328 330 332 336 337 334 330 327 321 319 316 312 311 303 303 306 308 311 308 299 307 309 312 310 308 308
187 200 226 241 202 235 173 262 247 251 259 266 280 297 308 327 324 324 325 325 322 328 329 326 328 332 331 334 333 332 329 328 323 321 325 322 318 312 308 304 302 304 306 303 302 300 304 304 305
234 223 238 241 215 242 263 255 257 261 261 270 281 291 305 321 329 319 320 323 326 331 328 328 330 330 329 330 331 333 331 330 329 329 325 322 319 315 312 307 302 300 298 299 298 299 297 297 298
235 235 240 246 243 249 262 251 258 261 265 272 278 288 298 313 321 326 331 322 331 336 334 333 333 331 330 331 330 334 330 328 327 327 326 324 323 321 317 314 312 306 301 298 296 295 296 295 293
237 241 228 255 246 252 262 255 252 263 272 275 278 288 296 308 322 326 329 329 330 337 338 337 337 335 333 332 330 330 332 331 329 326 324 323 323 323 320 317 315 314 310 307 299 296 294 294 294
248 250 249 247 257 252 254 253 256 260 269 273 280 287 296 304 318 323 327 332 337 339 340 341 342 344 340 336 332 330 329 330 331 330 328 325 323 321 322 320 318 316 310 309 309 306 298 293 294
244 243 234 264 260 262 252 258 260 264 267 278 283 288 294 301 313 321 328 333 336 339 341 342 342 345 345 344 341 338 336 338 336 337 337 335 331 327 323 320 318 318 315 314 313 309 305 303 301
250 232 245 259 250 268 258 264 262 266 271 277 285 292 298 304 312 324 331 335 340 337 340 343 345 347 349 345 347 345 345 345 339 338 338 341 340 338 335 329 324 320 317 314 313 314 310 305 302
256 243 239 246 238 263 255 267 262 259 267 272 275 281 290 301 317 329 332 335 339 339 341 344 346 347 350 350 348 346 344 341 341 341 343 342 342 340 339 338 335 330 326 319 314 313 315 308 303
273 276 257 263 260 271 268 268 279 254 262 265 268 277 289 302 314 322 327 334 339 343 346 348 353 354 357 358 354 352 350 349 349 347 345 347 347 346 343 339 337 334 332 328 321 314 312 311 308
267 243 280 275 274 274 274 272 274 262 268 263 258 267 285 298 308 323 331 338 343 348 351 354 357 0 2 2 2 360 357 353 351 350 349 348 348 351 350 350 346 342 336 329 324 320 316 312 310
210 185 268 272 269 275 281 271 272 293 276 259 248 245 271 297 311 323 340 348 345 351 0 5 7 9 10 10 10 9 8 8 5 1 2 0 358 357 354 355 353 350 347 339 333 325 320 317 312
173 199 273 273 276 281 299 284 296 300 295 231 193 203 240 297 321 335 345 351 5 5 4 9 10 8 6 9 8 8 9 12 14 10 6 4 3 1 358 359 1 357 358 0 350 337 329 324 319
208 217 267 276 281 280 291 298 299 305 276 191 179 176 195 270 325 333 5 8 9 7 7 9 10 8 4 2 5 6 6 4 2 3 2 2 3 3 2 3 0 2 4 2 4 7 355 342 335
257 251 268 272 278 281 285 290 298 187 177 173 165 162 160 160 61 16 34 21 13 9 12 11 6 4 5 5 4 5 4 3 3 4 3 2 3 4 5 4 4 6 6 6 5 2 358 354 353
253 253 270 274 276 278 284 283 295 164 160 158 155 154 150 141 127 85 48 31 18 16 15 11 6 4 3 4 3 1 360 2 4 3 2 2 2 1 2 4 5 4 4 3 3 0 358 355 353
245 257 243 270 279 280 283 285 299 142 154 156 154 151 146 140 131 106 66 47 34 24 22 17 11 6 2 1 1 2 2 3 3 0 357 357 358 0 0 0 0 0 359 358 358 356 354 353 350